Menomonie, WI

11:33 AM CST on December 11, 2019 (GMT -0600)
Menomonie

Weather History for KLUM - October, 2019

Change the Weather History Date:

Monday, October 21, 2019

  Actual Average (WUND) Record (WUND)
Temperature  
Mean Temperature 48 °F -  
Max Temperature 56 °F - - (-1)
Min Temperature 42 °F - - (-1)
Degree Days  
Heating Degree Days 16    
Moisture  
Dew Point 42 °F    
Average Humidity 84    
Maximum Humidity 99    
Minimum Humidity 56    
Precipitation  
Precipitation 0.01 in - - ()
Sea Level Pressure  
Sea Level Pressure 29.36 in    
Wind  
Wind Speed 11 mph (ESE)    
Max Wind Speed 22 mph    
Max Gust Speed 26 mph    
Visibility 8 miles    
Events Rain , Thunderstorm    
Averages and records for this station are not official NWS values.
T = Trace of Precipitation, MM = Missing Value Source: NWS Daily Summary

Daily Weather History Graph

Daily Weather History Graph

Search for Another Location

Airport or City:

Astronomy

Oct. 21, 2019 Rise Set
Actual Time 7:30 AM CDT 6:12 PM CDT
Civil Twilight 7:00 AM CDT 6:42 PM CDT
Nautical Twilight 6:26 AM CDT 7:16 PM CDT
Astronomical Twilight 5:52 AM CDT 7:50 PM CDT
Moon No Moon Rise 2:58 PM CDT (10/21)
Length of Visible Light 11h 41m
Length of Day
10h 42m
Waning Gibbous, 48% of the Moon is Illuminated
Oct 21
Waning Gibbous
Oct 27
New
Nov 4
First Quarter
Nov 12
Full
Nov 19
Last Quarter

Hourly Weather History & Observations

Time (CDT) Temp. Windchill Dew Point Humidity Pressure Visibility Wind Dir Wind Speed Gust Speed Precip Events Conditions
12:15 AM 46.2 °F 43.3 °F 38.3 °F 74% 29.83 in 10.0 mi East 5.8 mph - N/A   Clear
12:35 AM 45.3 °F 43.0 °F 38.3 °F 76% 29.82 in 10.0 mi East 4.6 mph - N/A   Clear
12:55 AM 44.1 °F 41.5 °F 38.3 °F 80% 29.80 in 10.0 mi ESE 4.6 mph - N/A   Clear
1:15 AM 47.3 °F - 38.5 °F 71% 29.79 in 10.0 mi East 6.9 mph - N/A   Scattered Clouds
1:35 AM 48.0 °F - 38.7 °F 70% 29.78 in 10.0 mi East 10.4 mph - N/A   Scattered Clouds
1:55 AM 47.3 °F - 38.5 °F 71% 29.74 in 10.0 mi East 8.1 mph - N/A   Clear
2:15 AM 47.3 °F - 37.6 °F 69% 29.74 in 10.0 mi East 9.2 mph - N/A   Clear
2:35 AM 48.0 °F - 37.4 °F 67% 29.73 in 10.0 mi East 12.7 mph 16.1 mph N/A   Clear
2:55 AM 48.2 °F - 37.4 °F 66% 29.74 in 10.0 mi East 11.5 mph - N/A   Clear
3:15 AM 47.7 °F - 36.7 °F 66% 29.73 in 10.0 mi East 10.4 mph 16.1 mph N/A   Scattered Clouds
3:35 AM 47.7 °F - 36.5 °F 65% 29.71 in 10.0 mi East 10.4 mph - N/A   Mostly Cloudy
3:55 AM 47.8 °F - 36.9 °F 66% 29.69 in 10.0 mi East 11.5 mph - N/A   Mostly Cloudy
4:35 AM 47.7 °F - 35.8 °F 63% 29.66 in 10.0 mi East 15.0 mph - N/A   Overcast
4:55 AM 48.0 °F - 34.7 °F 60% 29.63 in 10.0 mi East 15.0 mph 24.2 mph N/A   Overcast
5:15 AM 48.6 °F - 33.6 °F 56% 29.63 in 10.0 mi East 16.1 mph 20.7 mph N/A   Overcast
5:35 AM 48.9 °F - 33.8 °F 56% 29.61 in 10.0 mi East 15.0 mph 20.7 mph N/A   Overcast
6:15 AM 48.2 °F - 35.2 °F 61% 29.56 in 10.0 mi ENE 17.3 mph 21.9 mph N/A   Overcast
6:35 AM 48.2 °F - 36.1 °F 63% 29.54 in 10.0 mi ENE 12.7 mph 23.0 mph N/A Rain Light Rain
6:55 AM 45.0 °F 37.9 °F 39.0 °F 80% 29.52 in 7.0 mi ENE 16.1 mph 19.6 mph N/A Rain Light Rain
7:15 AM 44.6 °F 38.4 °F 39.6 °F 82% 29.51 in 7.0 mi East 12.7 mph 18.4 mph N/A Rain Rain
7:35 AM 43.7 °F 39.7 °F 41.2 °F 91% 29.49 in 5.0 mi ESE 6.9 mph - N/A Rain Rain
7:55 AM 43.7 °F 37.7 °F 42.3 °F 95% 29.48 in 3.0 mi East 11.5 mph 18.4 mph N/A Rain Rain
8:15 AM 43.5 °F 37.5 °F 42.8 °F 97% 29.47 in 7.0 mi East 11.5 mph 18.4 mph N/A Rain Rain
8:35 AM 43.5 °F 36.4 °F 43.0 °F 98% 29.44 in 3.0 mi ENE 15.0 mph 21.9 mph N/A Rain Heavy Rain
8:55 AM 44.1 °F 36.5 °F 43.7 °F 99% 29.43 in 4.0 mi East 17.3 mph 21.9 mph N/A Rain Rain
9:15 AM 44.6 °F 37.8 °F 44.2 °F 99% 29.42 in 4.0 mi East 15.0 mph 20.7 mph N/A Rain Rain
9:35 AM 45.0 °F 38.2 °F 44.6 °F 99% 29.40 in 3.0 mi ENE 15.0 mph - N/A Rain Rain
9:55 AM 45.5 °F 38.9 °F 45.0 °F 98% 29.38 in 3.0 mi ENE 15.0 mph - 0.01 in Rain Rain
10:15 AM 45.9 °F 38.5 °F 45.5 °F 99% 29.34 in 4.0 mi ENE 18.4 mph 24.2 mph N/A Rain Rain
10:35 AM 46.4 °F 38.5 °F 45.9 °F 98% 29.31 in 4.0 mi ENE 21.9 mph 26.5 mph N/A Rain Light Rain
10:55 AM 46.8 °F - 46.4 °F 99% 29.28 in 5.0 mi ENE 19.6 mph 25.3 mph N/A Rain Light Rain
11:15 AM 46.9 °F - 46.6 °F 99% 29.26 in 5.0 mi ENE 17.3 mph 25.3 mph N/A Rain Light Rain
11:35 AM 47.5 °F - 47.3 °F 99% 29.23 in 7.0 mi ENE 19.6 mph 23.0 mph N/A Rain Light Rain
11:55 AM 48.0 °F - 47.7 °F 99% 29.21 in 2.0 mi ENE 21.9 mph 25.3 mph N/A Rain Rain
12:15 PM 48.4 °F - 48.0 °F 99% 29.19 in 2.5 mi ENE 15.0 mph - N/A Rain Rain
12:35 PM 48.7 °F - 48.6 °F 99% 29.20 in 2.0 mi SE 8.1 mph 20.7 mph N/A Rain Heavy Rain
12:55 PM 48.7 °F - 48.6 °F 99% 29.20 in 3.0 mi East 9.2 mph - N/A Rain Rain
1:15 PM 49.1 °F - 48.2 °F 97% 29.16 in 7.0 mi SE 10.4 mph - N/A Rain Light Rain
1:35 PM 49.1 °F - 48.4 °F 97% 29.14 in 10.0 mi ESE 5.8 mph - N/A   Mostly Cloudy
1:55 PM 51.1 °F - 49.5 °F 94% 29.13 in 10.0 mi ESE 9.2 mph - N/A   Scattered Clouds
2:15 PM 52.9 °F - 48.7 °F 86% 29.13 in 10.0 mi ESE 10.4 mph - N/A   Scattered Clouds
2:35 PM 54.0 °F - 48.7 °F 82% 29.15 in 10.0 mi South 12.7 mph 17.3 mph N/A   Scattered Clouds
2:55 PM 53.4 °F - 47.7 °F 81% 29.14 in 10.0 mi South 12.7 mph - N/A   Scattered Clouds
3:15 PM 54.5 °F - 47.1 °F 76% 29.14 in 10.0 mi South 10.4 mph - N/A   Mostly Cloudy
3:35 PM 54.5 °F - 44.6 °F 69% 29.15 in 10.0 mi SSE 11.5 mph - N/A   Scattered Clouds
3:55 PM 55.9 °F - 45.3 °F 68% 29.15 in 10.0 mi SSE 11.5 mph - N/A   Scattered Clouds
4:15 PM 53.8 °F - 44.2 °F 70% 29.15 in 10.0 mi SSE 8.1 mph - N/A   Scattered Clouds
4:35 PM 54.5 °F - 44.8 °F 70% 29.15 in 10.0 mi SE 5.8 mph - N/A Thunderstorm Mostly Cloudy
4:55 PM 53.1 °F - 44.6 °F 73% 29.15 in 10.0 mi ESE 6.9 mph - N/A   Mostly Cloudy
5:15 PM 52.7 °F - 45.1 °F 75% 29.17 in 7.0 mi South 16.1 mph 26.5 mph N/A Rain , Thunderstorm Rain
5:35 PM 48.2 °F - 46.6 °F 94% 29.17 in 7.0 mi SSE 16.1 mph 21.9 mph N/A Rain , Thunderstorm Light Thunderstorms and Rain
5:55 PM 47.5 °F - 45.7 °F 93% 29.18 in 10.0 mi SSE 12.7 mph - N/A   Overcast
6:15 PM 47.1 °F - 45.5 °F 94% 29.19 in 10.0 mi SSE 13.8 mph - N/A   Overcast
6:35 PM 47.5 °F - 45.5 °F 93% 29.20 in 10.0 mi SSE 12.7 mph - N/A   Overcast
6:55 PM 47.8 °F - 45.5 °F 92% 29.21 in 10.0 mi SSE 10.4 mph - N/A   Overcast
7:15 PM 47.7 °F - 44.2 °F 88% 29.21 in 10.0 mi SSE 15.0 mph 23.0 mph N/A   Overcast
7:35 PM 46.8 °F - 42.4 °F 85% 29.21 in 10.0 mi SSE 11.5 mph - N/A   Mostly Cloudy
7:55 PM 46.4 °F 40.4 °F 41.9 °F 84% 29.21 in 10.0 mi SSE 13.8 mph 20.7 mph N/A   Overcast
8:15 PM 45.9 °F 40.0 °F 41.5 °F 85% 29.21 in 10.0 mi SSE 12.7 mph 18.4 mph N/A   Overcast
8:35 PM 45.3 °F 38.7 °F 41.2 °F 85% 29.21 in 10.0 mi SE 15.0 mph 19.6 mph N/A   Overcast
8:55 PM 44.6 °F 38.4 °F 41.5 °F 89% 29.20 in 10.0 mi SE 12.7 mph 18.4 mph N/A   Overcast
9:15 PM 44.6 °F 39.7 °F 41.4 °F 88% 29.20 in 10.0 mi SE 9.2 mph - N/A   Overcast
9:35 PM 44.6 °F 39.2 °F 41.4 °F 88% 29.19 in 10.0 mi SE 10.4 mph 16.1 mph N/A   Overcast
9:55 PM 44.6 °F 38.8 °F 40.6 °F 86% 29.19 in 10.0 mi SE 11.5 mph 17.3 mph N/A   Overcast
10:15 PM 44.6 °F 38.8 °F 40.3 °F 85% 29.19 in 10.0 mi SE 11.5 mph - N/A   Overcast
10:35 PM 44.1 °F 37.4 °F 40.1 °F 86% 29.18 in 10.0 mi SE 13.8 mph - N/A   Overcast
10:55 PM 43.2 °F 37.4 °F 40.6 °F 91% 29.18 in 5.0 mi ESE 10.4 mph - N/A   Overcast
11:15 PM 43.0 °F 36.8 °F 41.0 °F 93% 29.18 in 7.0 mi ESE 11.5 mph - N/A   Overcast
11:35 PM 42.8 °F 38.0 °F 41.4 °F 95% 29.17 in 7.0 mi East 8.1 mph - N/A Rain Light Rain
11:55 PM 42.4 °F 37.0 °F 41.5 °F 97% 29.17 in 7.0 mi East 9.2 mph - N/A   Drizzle